Weather History for Llano, TX

Change the Weather History Date:

Sunday, October 14, 2012

  Actual Average (KBMQ) Record (KBMQ)
Temperature  
Mean Temperature 74 °F -  
Max Temperature 84 °F 75 °F 88 °F (1999)
Min Temperature 64 °F 55 °F 44 °F (2001)
Cooling Degree Days 9    
Growing Degree Days 24 (Base 50)    
Moisture  
Dew Point 59 °F    
Average Humidity 66    
Maximum Humidity 100    
Minimum Humidity 30    
Precipitation  
Precipitation 1.00 in - - ()
Sea Level Pressure  
Sea Level Pressure 30.09 in    
Wind  
Wind Speed 5 mph (North)    
Max Wind Speed 10 mph    
Max Gust Speed 18 mph    
Visibility 9 miles    
Events Thunderstorm    
Averages and records for this station are not official NWS values.
T = Trace of Precipitation, MM = Missing Value Source: NWS Daily Summary

Daily Weather History Graph

Daily Weather History Graph

Search for Another Location

Airport:

Trip Planner

Search our weather history database for the weather conditions in past years. The results will help you decide how hot, cold, wet, or windy it might be!

Date:

Astronomy

Oct. 14, 2012 Rise Set
Actual Time 7:36 AM CDT 7:03 PM CDT
Civil Twilight 7:12 AM CDT 7:27 PM CDT
Nautical Twilight 6:44 AM CDT 7:56 PM CDT
Astronomical Twilight 6:16 AM CDT 8:23 PM CDT
Moon 6:38 AM CDT (10/14) 6:25 PM CDT (10/14)
Length of Visible Light 12h 15m
Length of Day
11h 26m
Waning Crescent, 1% of the Moon is Illuminated
Oct 14
Waning Crescent
Oct 15
New
Oct 21
First Quarter
Oct 29
Full
Nov 6
Last Quarter

Hourly Weather History & Observations

Time (CDT) Temp. Heat Index Dew Point Humidity Pressure Visibility Wind Dir Wind Speed Gust Speed Precip Events Conditions
12:15 AM 78.8 °F - 71.6 °F 78% 29.97 in 10.0 mi South 5.8 mph - N/A   Overcast
12:35 AM 78.8 °F - 71.6 °F 78% 29.96 in 10.0 mi South 10.4 mph - N/A   Overcast
12:55 AM 78.8 °F - 71.6 °F 78% 29.96 in 10.0 mi South 8.1 mph - N/A Thunderstorm Overcast
1:15 AM 78.8 °F - 71.6 °F 78% 29.95 in 10.0 mi South 5.8 mph 18.4 mph N/A Thunderstorm Overcast
1:35 AM 69.8 °F - 68.0 °F 94% 30.01 in 1.5 mi North 5.8 mph 16.1 mph 0.36 in Thunderstorm Thunderstorm
1:55 AM 68.0 °F - 66.2 °F 94% 30.00 in 3.0 mi NNE 8.1 mph - 0.54 in Thunderstorm Overcast
2:15 AM 68.0 °F - 66.2 °F 94% 30.03 in 1.8 mi North 4.6 mph - 0.22 in Thunderstorm Overcast
2:35 AM 68.0 °F - 68.0 °F 100% 30.03 in 3.0 mi SSW 8.1 mph - 0.33 in Thunderstorm Thunderstorm
2:55 AM 68.0 °F - 66.2 °F 94% 30.02 in 4.0 mi Calm Calm - 0.40 in Thunderstorm Thunderstorm
3:15 AM 68.0 °F - 66.2 °F 94% 30.01 in 10.0 mi Calm Calm - N/A Thunderstorm Mostly Cloudy
3:35 AM 66.2 °F - 66.2 °F 100% 30.02 in 10.0 mi Calm Calm - N/A Thunderstorm Partly Cloudy
3:55 AM 68.0 °F - 66.2 °F 94% 30.03 in 10.0 mi South 4.6 mph - N/A Thunderstorm Thunderstorm
4:15 AM 66.2 °F - 66.2 °F 100% 30.03 in 4.0 mi Calm Calm - 0.06 in Thunderstorm Thunderstorm
4:35 AM 66.2 °F - 66.2 °F 100% 30.02 in 10.0 mi West 6.9 mph - 0.06 in Thunderstorm Mostly Cloudy
4:55 AM 66.2 °F - 66.2 °F 100% 30.03 in 10.0 mi South 3.5 mph - 0.06 in Thunderstorm Partly Cloudy
5:15 AM 66.2 °F - 66.2 °F 100% 30.06 in 10.0 mi Calm Calm - N/A Thunderstorm Partly Cloudy
5:35 AM 66.2 °F - 66.2 °F 100% 30.07 in 9.0 mi SSE 3.5 mph - N/A Thunderstorm Thunderstorm
6:15 AM 66.2 °F - 64.4 °F 94% 30.07 in 10.0 mi South 5.8 mph - N/A Thunderstorm Clear
6:35 AM 66.2 °F - 64.4 °F 94% 30.06 in 10.0 mi South 3.5 mph - N/A   Clear
6:55 AM 66.2 °F - 64.4 °F 94% 30.06 in 10.0 mi Calm Calm - N/A   Clear
7:15 AM 66.2 °F - 64.4 °F 94% 30.07 in 10.0 mi Calm Calm - N/A   Partly Cloudy
7:35 AM 64.4 °F - 64.4 °F 100% 30.08 in 10.0 mi West 3.5 mph - N/A   Clear
7:55 AM 64.4 °F - 64.4 °F 100% 30.08 in 10.0 mi NW 4.6 mph - N/A   Clear
8:15 AM 64.4 °F - 64.4 °F 100% 30.09 in 10.0 mi NW 4.6 mph - N/A   Clear
8:35 AM 66.2 °F - 66.2 °F 100% 30.10 in 10.0 mi NW 3.5 mph - N/A   Clear
8:55 AM 66.2 °F - 66.2 °F 100% 30.11 in 10.0 mi NW 5.8 mph - N/A   Clear
9:15 AM 68.0 °F - 66.2 °F 94% 30.12 in 10.0 mi NW 4.6 mph - N/A   Clear
9:35 AM 69.8 °F - 66.2 °F 88% 30.13 in 10.0 mi NW 5.8 mph - N/A   Clear
9:55 AM 71.6 °F - 66.2 °F 83% 30.13 in 10.0 mi WNW 4.6 mph - N/A   Clear
10:15 AM 73.4 °F - 66.2 °F 78% 30.13 in 10.0 mi NNW 5.8 mph - N/A   Clear
10:35 AM 75.2 °F - 62.6 °F 65% 30.14 in 10.0 mi NNW 10.4 mph - N/A   Clear
10:55 AM 77.0 °F - 60.8 °F 57% 30.14 in 10.0 mi North 8.1 mph - N/A   Clear
11:15 AM 78.8 °F - 57.2 °F 47% 30.14 in 10.0 mi North 6.9 mph - N/A   Clear
11:35 AM 78.8 °F - 57.2 °F 47% 30.14 in 10.0 mi NNE 5.8 mph - N/A   Clear
11:55 AM 78.8 °F - 55.4 °F 44% 30.15 in 10.0 mi North 8.1 mph - N/A   Clear
12:15 PM 80.6 °F 80.5 °F 55.4 °F 42% 30.15 in 10.0 mi North 8.1 mph - N/A   Clear
12:35 PM 80.6 °F 80.8 °F 57.2 °F 45% 30.14 in 10.0 mi NE 5.8 mph - N/A   Clear
12:55 PM 80.6 °F 80.8 °F 57.2 °F 45% 30.13 in 10.0 mi NNE 6.9 mph - N/A   Clear
1:15 PM 80.6 °F 80.5 °F 55.4 °F 42% 30.13 in 10.0 mi NNE 5.8 mph - N/A   Clear
1:35 PM 82.4 °F 81.4 °F 53.6 °F 37% 30.12 in 10.0 mi North 8.1 mph - N/A   Clear
1:55 PM 82.4 °F - 51.8 °F 35% 30.11 in 10.0 mi NNE 5.8 mph - N/A   Clear
2:15 PM 82.4 °F 81.4 °F 53.6 °F 37% 30.10 in 4.0 mi NNW 5.8 mph - N/A   Clear
2:35 PM 82.4 °F - 51.8 °F 35% 30.10 in 10.0 mi North 9.2 mph - N/A   Clear
2:55 PM 82.4 °F - 51.8 °F 35% 30.09 in 9.0 mi North 4.6 mph - N/A   Clear
3:15 PM 84.2 °F - 50.0 °F 30% 30.09 in 9.0 mi NNE 5.8 mph - N/A   Clear
3:35 PM 84.2 °F - 50.0 °F 30% 30.09 in 9.0 mi NNE 4.6 mph - N/A   Clear
3:55 PM 84.2 °F - 50.0 °F 30% 30.09 in 10.0 mi NNE 6.9 mph - N/A   Clear
4:15 PM 84.2 °F - 51.8 °F 33% 30.09 in 10.0 mi North 9.2 mph - N/A   Clear
4:35 PM 84.2 °F - 51.8 °F 33% 30.09 in 10.0 mi North 9.2 mph - N/A   Clear
4:55 PM 84.2 °F - 51.8 °F 33% 30.08 in 10.0 mi NNE 6.9 mph - N/A   Clear
5:15 PM 84.2 °F - 51.8 °F 33% 30.08 in 10.0 mi NNE 3.5 mph - N/A   Clear
5:35 PM 82.4 °F - 51.8 °F 35% 30.08 in 10.0 mi North 5.8 mph - N/A   Clear
5:55 PM 82.4 °F - 48.2 °F 30% 30.08 in 10.0 mi NE 3.5 mph - N/A   Clear
6:15 PM 82.4 °F - 50.0 °F 32% 30.08 in 10.0 mi NE 4.6 mph - N/A   Clear
6:35 PM 80.6 °F - 51.8 °F 37% 30.08 in 8.0 mi NNE 3.5 mph - N/A   Clear
6:55 PM 78.8 °F - 51.8 °F 39% 30.09 in 4.0 mi NNE 3.5 mph - N/A   Clear
7:15 PM 73.4 °F - 53.6 °F 50% 30.09 in 10.0 mi Calm Calm - N/A   Clear
7:35 PM 71.6 °F - 53.6 °F 53% 30.10 in 10.0 mi Calm Calm - N/A   Clear
7:55 PM 71.6 °F - 53.6 °F 53% 30.10 in 10.0 mi North 3.5 mph - N/A   Clear
8:15 PM 69.8 °F - 55.4 °F 60% 30.11 in 10.0 mi North 3.5 mph - N/A   Clear
8:35 PM 66.2 °F - 55.4 °F 68% 30.11 in 10.0 mi North 3.5 mph - N/A   Clear
8:55 PM 66.2 °F - 53.6 °F 64% 30.12 in 10.0 mi North 4.6 mph - N/A   Clear
9:15 PM 66.2 °F - 53.6 °F 64% 30.13 in 10.0 mi North 4.6 mph - N/A   Clear
9:35 PM 64.4 °F - 53.6 °F 68% 30.13 in 10.0 mi North 4.6 mph - N/A   Clear
9:55 PM 64.4 °F - 53.6 °F 68% 30.13 in 10.0 mi North 4.6 mph - N/A   Clear
10:15 PM 64.4 °F - 51.8 °F 64% 30.15 in 10.0 mi North 3.5 mph - N/A   Clear
10:35 PM 64.4 °F - 51.8 °F 64% 30.16 in 10.0 mi North 5.8 mph - N/A   Clear
10:55 PM 64.4 °F - 51.8 °F 64% 30.16 in 10.0 mi North 5.8 mph - N/A   Clear
11:15 PM 66.2 °F - 50.0 °F 56% 30.16 in 10.0 mi North 3.5 mph - N/A   Clear
11:35 PM 66.2 °F - 48.2 °F 52% 30.17 in 10.0 mi Calm Calm - N/A   Clear